[[{"header":{"parameterUnit":"m.s-1","parameterCategory":1,"la1":30.2991,"la2":30.254,"lo1":-89.0895,"lo2":-89.0444,"dy":0.0017,"dx":0.0017,"nx":28,"ny":28,"refTime":"2025-03-31T21:00:00:Z","depth":0,"parameterNumber":2,"parameterNumberName":"U-component_of_WINDS"},"data":[0,0,0,0,0,0,0,0,0,0,0,0,0,0,0,0,0,0,0,0,0,0,0,0,0,0,0,0,0,0,0,0,0,0,0,0,0,0,0,0,0,0,0,0,0,0,0,0,0,0,0,0,0,0,0,0,0,0,1.9655,1.9656,0,1.9719,1.972,1.9721,1.9675,1.9673,1.9671,1.9669,1.9737,1.974,1.9744,0,0,0,0,0,0,0,0,0,0,0,0,0,1.9496,1.9499,1.9655,1.9656,1.9657,1.9719,1.972,1.9721,1.9675,1.9673,1.967,1.9668,1.9735,1.974,1.9744,0,0,0,0,0,0,0,0,0,0,0,0,0,1.9563,1.95,1.9655,1.9641,1.9641,1.9719,1.972,1.9721,1.9676,1.9672,1.9669,1.9667,1.9734,1.9739,1.9745,1.9841,0,0,1.9762,1.9764,0,0,0,0,0,0,0,0,1.9559,1.9569,1.9642,1.9642,1.9642,1.9686,1.9689,1.9761,1.9676,1.9662,1.9669,1.9665,1.9722,1.9729,1.9748,1.9844,1.9847,1.9762,1.9766,1.9768,1.977,0,0,0,0,0,0,0,1.9555,1.9566,1.968,1.9644,1.9643,1.9633,1.9639,1.9702,1.9709,1.9663,1.966,1.9668,1.9722,1.9742,1.9749,1.9848,1.9762,1.9767,1.9771,1.9773,2.0028,2.0032,0,0,0,0,0,0,1.9551,1.9562,1.9678,1.9682,1.9592,1.9638,1.9645,1.9675,1.9708,1.971,1.9671,1.9666,1.9734,1.9742,1.9751,1.9867,1.9768,1.9773,1.9777,2.0025,2.0029,2.0033,0,0,0,0,0,0,1.9548,1.9562,1.9676,1.9622,1.9635,1.9644,1.9678,1.9678,1.9698,1.9714,1.9715,1.9691,1.9732,1.9743,1.9819,1.9869,1.9776,1.9781,2.0021,2.0026,2.0031,2.0099,0,0,0,0,0,0,1.9543,1.9561,1.9596,1.9623,1.9638,1.9742,1.9681,1.9681,1.9708,1.9702,1.9733,1.9735,1.9731,1.9811,1.9825,1.9875,1.9785,2.0016,2.0023,2.0029,2.0092,2.0106,2.0117,0,0,0,0,0,1.9538,1.9613,1.9599,1.9613,1.9683,1.9745,1.9754,1.9747,1.9712,1.9749,1.9759,1.9734,1.9861,1.9819,1.9834,1.9887,2.0013,2.0021,2.0029,2.0087,2.0103,2.0117,0,0,0,0,0,0,1.9593,1.9616,1.96,1.9686,1.9714,1.9737,1.9783,1.9765,1.9803,1.9796,1.9787,1.9794,1.9874,1.9888,1.9841,1.9982,1.9932,1.9943,1.997,1.9986,1.9998,1.9994,1.979,0,0,0,0,0,1.9615,1.9663,1.9681,1.9755,1.977,1.9774,1.9801,1.9793,1.9822,1.9834,1.9849,1.9879,1.9925,1.9956,2.0,2.0094,2.0101,2.0137,2.015,2.016,2.017,2.0222,2.0239,2.0058,2.0058,2.0058,0,0,1.9661,1.968,1.9711,1.9766,1.9787,1.9838,1.9784,1.984,1.9878,1.9842,1.9915,1.9928,1.996,2.0046,2.0084,2.006,2.0221,2.017,2.0178,2.0182,2.0232,2.0249,2.0264,2.0063,2.0062,2.0062,0,0,1.9772,1.979,1.9855,1.9877,1.9908,1.9911,1.9927,1.9953,1.996,2.0033,2.0008,2.0053,2.0133,2.0158,2.0181,2.0302,2.0281,2.0317,2.0382,2.0434,2.0448,2.0461,2.0506,2.0522,2.0327,2.0327,2.0327,0,1.9826,1.99,1.989,1.9948,1.9974,1.9944,2.001,2.0032,2.0077,2.0096,2.0068,2.0169,2.0188,2.028,2.031,2.0329,2.0348,2.0314,2.0446,2.0459,2.0471,2.0514,2.053,2.0331,2.033,2.033,2.033,0,1.9966,2.0018,2.0066,2.011,2.0142,2.0204,2.0204,2.0237,2.0227,2.0234,2.0309,2.0332,2.038,2.0401,2.0392,2.0493,2.0476,2.0447,2.0397,2.0492,2.0533,2.0549,2.0337,2.0335,2.0334,2.0333,0,0,2.0113,2.0151,2.0169,2.019,2.0223,2.0264,2.0325,2.0372,2.0401,2.0433,2.0486,2.0555,2.0528,2.0555,2.0548,2.0593,2.069,2.0558,2.0559,2.0583,2.0804,2.0827,2.0846,2.0675,2.0678,2.0681,2.0802,0,2.0226,2.0332,2.0326,2.0426,2.0475,2.0448,2.0501,2.0528,2.0536,2.0579,2.0588,2.0638,2.0598,2.0614,2.0657,2.0669,2.0734,2.066,2.0725,2.0728,2.0719,2.0866,2.089,2.1003,2.0817,2.082,2.0822,0,2.0373,2.041,2.0515,2.0543,2.0563,2.0611,2.0655,2.0696,2.0727,2.0729,2.0759,2.0746,2.0809,2.0756,2.0844,2.0793,2.082,2.083,2.0834,2.0841,2.0782,2.0879,2.1039,2.1057,2.0846,2.0844,2.0842,0,2.0472,2.0548,2.0621,2.0639,2.0673,2.0708,2.0723,2.0751,2.078,2.0818,2.0837,2.0882,2.0908,2.0944,2.0943,2.0904,2.1033,2.0979,2.1038,2.1038,2.1067,2.1066,2.1235,2.1082,2.1082,2.1082,2.1081,0,2.06,2.0665,2.0666,2.0711,2.0785,2.0777,2.085,2.0862,2.0888,2.0936,2.0914,2.096,2.0956,2.1002,2.1002,2.1076,2.1087,2.1092,2.1092,2.1095,2.1095,2.1113,2.1106,2.1086,2.1085,2.1084,2.1083,0,2.0723,2.0726,2.0804,2.0829,2.0837,2.0891,2.0913,2.0957,2.0962,2.1024,2.1038,2.1047,2.1101,2.1104,2.1166,2.1166,2.1256,2.1246,2.1246,2.1245,2.1304,2.1299,2.1493,2.1518,2.1347,2.1349,2.135,0,2.0805,2.0855,2.0886,2.0917,2.0934,2.0984,2.1013,2.1008,2.104,2.108,2.1119,2.1171,2.1212,2.13,2.1313,2.1361,2.1353,2.1417,2.136,2.1362,2.1356,2.1353,2.1359,2.1429,2.1431,2.1432,2.1434,0,2.0951,2.095,2.0994,2.1039,2.1075,2.111,2.1142,2.1169,2.1168,2.1205,2.126,2.1292,2.1355,2.1408,2.1454,2.1471,2.1454,2.1451,2.1468,2.1472,2.1471,2.1474,2.1278,2.1447,2.1446,2.1445,2.1444,2.1444,2.1057,2.1101,2.113,2.118,2.1204,2.1235,2.1278,2.1289,2.1335,2.1386,2.138,2.1441,2.1472,2.1533,2.1554,2.1603,2.1581,2.1604,2.161,2.1617,2.1624,2.1462,2.1611,2.1611,2.161,2.161,2.161,0,2.1203,2.1221,2.1267,2.1313,2.1353,2.1331,2.1367,2.1402,2.1456,2.1486,2.1527,2.1591,2.1641,2.1659,2.1709,2.1745,2.1738,2.1758,2.1756,2.1761,2.164,2.1621,2.1763,2.1763,2.1763,2.1763,2.1763,2.1763,2.1284,2.1358,2.1361,2.1447,2.1464,2.1524,2.1546,2.1575,2.1599,2.1671,2.1713,2.1724,2.175,2.1802,2.1848,2.1852,2.1872,2.1897,2.1897,2.1784,2.1769,2.1754,2.1737,2.1901,2.1901,2.2014,2.2015,2.2016]},{"header":{"parameterUnit":"m.s-1","parameterCategory":1,"la1":30.2991,"la2":30.254,"lo1":-89.0895,"lo2":-89.0444,"dy":0.0017,"dx":0.0017,"nx":28,"ny":28,"refTime":"2025-03-31T21:00:00:Z","depth":0,"parameterNumber":3,"parameterNumberName":"V-component_of_WINDS"},"data":[0,0,0,0,0,0,0,0,0,0,0,0,0,0,0,0,0,0,0,0,0,0,0,0,0,0,0,0,0,0,0,0,0,0,0,0,0,0,0,0,0,0,0,0,0,0,0,0,0,0,0,0,0,0,0,0,0,0,0.572,0.5722,0,0.5882,0.5884,0.5886,0.5932,0.5931,0.5931,0.593,0.6105,0.611,0.6116,0,0,0,0,0,0,0,0,0,0,0,0,0,0.5461,0.5465,0.572,0.5722,0.5724,0.5882,0.5884,0.5886,0.5932,0.5931,0.593,0.5929,0.6103,0.6109,0.6116,0,0,0,0,0,0,0,0,0,0,0,0,0,0.5593,0.5467,0.572,0.5766,0.5772,0.5882,0.5884,0.5887,0.5933,0.5931,0.593,0.5929,0.6101,0.6109,0.6117,0.6195,0,0,0.6142,0.6146,0,0,0,0,0,0,0,0,0.5586,0.5603,0.5757,0.5763,0.577,0.5885,0.5857,0.5991,0.5933,0.5872,0.593,0.5928,0.6034,0.6047,0.6081,0.6203,0.6211,0.6143,0.6148,0.6152,0.6154,0,0,0,0,0,0,0,0.5576,0.5596,0.5785,0.576,0.5767,0.5782,0.5799,0.5883,0.5959,0.5877,0.5881,0.5899,0.6037,0.6073,0.6085,0.6214,0.6143,0.615,0.6155,0.6158,0.641,0.6411,0,0,0,0,0,0,0.5558,0.5588,0.578,0.579,0.5672,0.5788,0.5807,0.585,0.5958,0.5973,0.59,0.59,0.6059,0.6076,0.6092,0.619,0.6151,0.6159,0.6164,0.6408,0.641,0.6412,0,0,0,0,0,0,0.5552,0.5575,0.5773,0.569,0.5716,0.5793,0.5841,0.5854,0.589,0.5975,0.599,0.5922,0.6059,0.608,0.6169,0.6197,0.6163,0.617,0.6406,0.6409,0.6411,0.6388,0,0,0,0,0,0,0.5545,0.5572,0.56,0.569,0.572,0.5844,0.5843,0.5858,0.5903,0.5905,0.6,0.6014,0.6059,0.6156,0.6177,0.6208,0.6177,0.6404,0.6407,0.641,0.6387,0.6389,0.6392,0,0,0,0,0,0.5535,0.5589,0.5601,0.5624,0.5757,0.5846,0.5863,0.5912,0.5905,0.5935,0.599,0.6011,0.6191,0.6165,0.6189,0.6222,0.6402,0.6406,0.641,0.6385,0.6389,0.6392,0,0,0,0,0,0,0.5504,0.5602,0.5617,0.5701,0.5764,0.5853,0.5893,0.5914,0.5983,0.5983,0.6043,0.6064,0.6149,0.6195,0.6164,0.6305,0.6297,0.6306,0.627,0.6275,0.6277,0.6264,0.6184,0,0,0,0,0,0.5507,0.5568,0.5651,0.5718,0.5748,0.5815,0.5856,0.5887,0.5957,0.5985,0.6046,0.6115,0.6188,0.6234,0.6305,0.6394,0.6416,0.6429,0.6432,0.6434,0.6441,0.6492,0.6499,0.6425,0.6425,0.6425,0,0,0.5514,0.5574,0.561,0.5713,0.5766,0.583,0.5837,0.5906,0.5955,0.5996,0.6082,0.613,0.6212,0.63,0.6343,0.6342,0.6466,0.6439,0.6439,0.6446,0.6496,0.6503,0.6509,0.6427,0.6427,0.6426,0,0,0.5558,0.561,0.567,0.5723,0.5802,0.5846,0.586,0.5947,0.5979,0.6066,0.6098,0.616,0.6283,0.6339,0.6384,0.6451,0.6473,0.6473,0.6487,0.6536,0.6542,0.6547,0.6571,0.6579,0.648,0.648,0.648,0,0.5557,0.5652,0.57,0.5766,0.5811,0.5849,0.5912,0.5962,0.6062,0.6093,0.609,0.6245,0.6303,0.6405,0.6421,0.6457,0.6477,0.6462,0.6536,0.6542,0.6548,0.6572,0.658,0.6479,0.6479,0.6479,0.6479,0,0.5647,0.5713,0.5753,0.5844,0.5895,0.5959,0.602,0.6065,0.6093,0.6138,0.6228,0.6298,0.6384,0.6412,0.6441,0.6519,0.6516,0.6524,0.6518,0.6554,0.6577,0.6586,0.6478,0.6478,0.6479,0.6479,0,0,0.5676,0.5792,0.5806,0.5848,0.5938,0.5992,0.6059,0.614,0.6178,0.6247,0.6306,0.6409,0.6417,0.6468,0.6504,0.6547,0.6596,0.6551,0.6554,0.6556,0.6687,0.6679,0.6689,0.6611,0.6613,0.6615,0.668,0,0.5731,0.5848,0.5894,0.5991,0.6054,0.6091,0.6151,0.6214,0.6259,0.6321,0.6372,0.6443,0.6449,0.6479,0.6524,0.658,0.6623,0.6577,0.6669,0.6672,0.6646,0.6701,0.6693,0.6751,0.6689,0.6691,0.6692,0,0.5811,0.5875,0.5978,0.606,0.6088,0.614,0.6218,0.6276,0.6351,0.638,0.6437,0.6471,0.6546,0.6536,0.6641,0.6608,0.665,0.6683,0.6687,0.6697,0.6683,0.6712,0.6771,0.6779,0.6707,0.6706,0.6705,0,0.582,0.5934,0.601,0.6045,0.6143,0.6179,0.6222,0.6295,0.6341,0.6411,0.6441,0.6521,0.6564,0.6626,0.6681,0.6668,0.6782,0.6776,0.681,0.6808,0.6831,0.6829,0.6896,0.6859,0.6859,0.6859,0.6858,0,0.5876,0.5937,0.6015,0.6061,0.6132,0.6186,0.6255,0.6302,0.6366,0.6425,0.6464,0.6519,0.6589,0.6654,0.6698,0.6779,0.6799,0.6826,0.6837,0.6822,0.6818,0.6849,0.6846,0.6861,0.686,0.686,0.686,0,0.5898,0.5952,0.6037,0.6123,0.6146,0.6194,0.6269,0.6318,0.6364,0.6438,0.6459,0.6533,0.6612,0.6673,0.6776,0.6806,0.6891,0.6904,0.6865,0.687,0.69,0.6896,0.699,0.7005,0.6957,0.6958,0.6958,0,0.5929,0.5976,0.6067,0.6107,0.6149,0.6214,0.626,0.6317,0.6364,0.6452,0.649,0.6571,0.6638,0.6762,0.6827,0.6906,0.6921,0.6948,0.6933,0.6916,0.6921,0.6917,0.6922,0.6949,0.695,0.695,0.695,0,0.5979,0.6004,0.6067,0.614,0.6194,0.6255,0.6318,0.635,0.6418,0.647,0.6548,0.66,0.6704,0.6784,0.687,0.6919,0.6947,0.6954,0.6966,0.6951,0.6926,0.6939,0.6869,0.6952,0.6952,0.6951,0.6951,0.6951,0.6007,0.605,0.612,0.619,0.6242,0.63,0.6349,0.6401,0.6467,0.6553,0.6584,0.6665,0.674,0.6858,0.6907,0.6974,0.6976,0.6993,0.6997,0.7001,0.6998,0.6916,0.699,0.699,0.699,0.699,0.699,0,0.6058,0.6105,0.6168,0.6253,0.6308,0.6327,0.6398,0.6444,0.6513,0.658,0.6644,0.6735,0.6813,0.6885,0.6967,0.7006,0.7021,0.7026,0.7023,0.7034,0.6993,0.6973,0.7013,0.7013,0.7013,0.7013,0.7012,0.7012,0.6091,0.6166,0.6199,0.6301,0.6349,0.6426,0.6465,0.6519,0.6572,0.6671,0.6734,0.6779,0.6849,0.6936,0.7009,0.7029,0.7057,0.7058,0.7081,0.704,0.7037,0.7034,0.7017,0.7064,0.7064,0.7117,0.7117,0.7118]}]]